Time,TemperatureF,DewpointF,PressureIn,WindDirection,WindDirectionDegrees,WindSpeedMPH,WindSpeedGustMPH,Humidity,HourlyPrecipIn,Conditions,Clouds,dailyrainin,SoftwareType,DateUTC
2013-04-05 00:02:00,39.0,36.0,-100.00,ENE,59,3.0,7.0,88,-99.99,,,-99.99,,2013-04-05 07:02:00,
2013-04-05 00:12:00,39.0,36.0,-100.00,ENE,59,3.0,7.0,88,-99.99,,,-99.99,,2013-04-05 07:12:00,
2013-04-05 00:22:00,37.0,35.0,-100.00,SE,124,0.0,5.0,91,-99.99,,,-99.99,,2013-04-05 07:22:00,
2013-04-05 00:32:00,37.0,35.0,-100.00,SE,124,0.0,5.0,91,-99.99,,,-99.99,,2013-04-05 07:32:00,
2013-04-05 00:42:00,37.0,35.0,-100.00,SE,124,0.0,5.0,91,-99.99,,,-99.99,,2013-04-05 07:42:00,
2013-04-05 00:52:00,37.0,35.0,-100.00,SE,124,0.0,5.0,91,-99.99,,,-99.99,,2013-04-05 07:52:00,
2013-04-05 01:32:00,37.0,35.0,-100.00,ENE,69,2.0,5.0,91,-99.99,,,-99.99,,2013-04-05 08:32:00,
2013-04-05 01:42:00,37.0,35.0,-100.00,ENE,69,2.0,5.0,91,-99.99,,,-99.99,,2013-04-05 08:42:00,
2013-04-05 01:52:00,35.0,33.0,-100.00,SE,128,0.0,2.0,92,-99.99,,,-99.99,,2013-04-05 08:52:00,
2013-04-05 02:02:00,35.0,33.0,-100.00,SE,128,0.0,2.0,92,-99.99,,,-99.99,,2013-04-05 09:02:00,
2013-04-05 02:12:00,34.0,32.0,-100.00,South,169,0.0,2.0,93,-99.99,,,-99.99,,2013-04-05 09:12:00,
2013-04-05 02:22:00,34.0,32.0,-100.00,South,169,0.0,2.0,93,-99.99,,,-99.99,,2013-04-05 09:22:00,
2013-04-05 02:32:00,34.0,32.0,-100.00,South,169,0.0,2.0,93,-99.99,,,-99.99,,2013-04-05 09:32:00,
2013-04-05 02:42:00,34.0,32.0,-100.00,SE,133,1.0,3.0,92,-99.99,,,-99.99,,2013-04-05 09:42:00,
2013-04-05 02:53:00,34.0,32.0,-100.00,SE,134,1.0,2.0,94,-99.99,,,-99.99,,2013-04-05 09:53:00,
2013-04-05 03:02:00,34.0,32.0,-100.00,SE,134,1.0,2.0,94,-99.99,,,-99.99,,2013-04-05 10:02:00,
2013-04-05 03:12:00,34.0,32.0,-100.00,SE,133,1.0,3.0,92,-99.99,,,-99.99,,2013-04-05 10:12:00,
2013-04-05 03:23:00,34.0,32.0,-100.00,SE,133,1.0,3.0,92,-99.99,,,-99.99,,2013-04-05 10:23:00,
2013-04-05 03:32:00,34.0,32.0,-100.00,SE,133,1.0,3.0,92,-99.99,,,-99.99,,2013-04-05 10:32:00,
2013-04-05 05:22:00,33.0,29.0,-100.00,SE,124,1.0,4.0,86,-99.99,,,-99.99,,2013-04-05 12:22:00,
2013-04-05 05:32:00,33.0,29.0,-100.00,SE,124,1.0,4.0,86,-99.99,,,-99.99,,2013-04-05 12:32:00,
2013-04-05 05:42:00,33.0,30.0,-100.00,SE,131,1.0,4.0,87,-99.99,,,-99.99,,2013-04-05 12:42:00,
2013-04-05 05:52:00,33.0,30.0,-100.00,SE,131,1.0,4.0,87,-99.99,,,-99.99,,2013-04-05 12:52:00,
2013-04-05 06:02:00,33.0,30.0,-100.00,SE,127,1.0,3.0,88,-99.99,,,-99.99,,2013-04-05 13:02:00,
2013-04-05 06:12:00,33.0,30.0,-100.00,SE,127,1.0,3.0,88,-99.99,,,-99.99,,2013-04-05 13:12:00,
2013-04-05 06:22:00,33.0,30.0,-100.00,SE,127,1.0,3.0,88,-99.99,,,-99.99,,2013-04-05 13:22:00,
2013-04-05 07:36:00,33.0,30.0,-100.00,SE,133,0.0,3.0,89,-99.99,,,-99.99,,2013-04-05 14:36:00,
2013-04-05 07:42:00,33.0,30.0,-100.00,SE,133,0.0,3.0,89,-99.99,,,-99.99,,2013-04-05 14:42:00,
2013-04-05 07:52:00,33.0,30.0,-100.00,SE,133,0.0,3.0,89,-99.99,,,-99.99,,2013-04-05 14:52:00,
2013-04-05 08:12:00,33.0,29.0,-100.00,NNE,25,0.0,2.0,86,-99.99,,,-99.99,,2013-04-05 15:12:00,
2013-04-05 08:23:00,33.0,29.0,-100.00,NNE,25,0.0,2.0,86,-99.99,,,-99.99,,2013-04-05 15:23:00,
2013-04-05 08:33:00,35.0,30.0,-100.00,ENE,73,1.0,3.0,81,-99.99,,,-99.99,,2013-04-05 15:33:00,
2013-04-05 08:42:00,35.0,30.0,-100.00,ENE,73,1.0,3.0,81,-99.99,,,-99.99,,2013-04-05 15:42:00,
2013-04-05 08:53:00,36.0,29.0,-100.00,East,82,1.0,3.0,75,-99.99,,,-99.99,,2013-04-05 15:53:00,
2013-04-05 09:02:00,36.0,29.0,-100.00,East,82,1.0,3.0,75,-99.99,,,-99.99,,2013-04-05 16:02:00,
2013-04-05 09:13:00,37.0,28.0,-100.00,East,85,1.0,7.0,70,-99.99,,,-99.99,,2013-04-05 16:13:00,
2013-04-05 09:23:00,37.0,28.0,-100.00,East,85,1.0,7.0,70,-99.99,,,-99.99,,2013-04-05 16:23:00,
2013-04-05 09:32:00,40.0,28.0,-100.00,NE,51,2.0,5.0,63,-99.99,,,-99.99,,2013-04-05 16:32:00,
2013-04-05 09:42:00,40.0,28.0,-100.00,NE,51,2.0,5.0,63,-99.99,,,-99.99,,2013-04-05 16:42:00,
2013-04-05 09:52:00,40.0,28.0,-100.00,NE,51,2.0,5.0,63,-99.99,,,-99.99,,2013-04-05 16:52:00,
2013-04-05 11:02:00,45.0,25.0,-100.00,NE,42,3.0,7.0,46,-99.99,,,-99.99,,2013-04-05 18:02:00,
2013-04-05 11:12:00,45.0,25.0,-100.00,NE,42,3.0,7.0,46,-99.99,,,-99.99,,2013-04-05 18:12:00,
2013-04-05 11:22:00,45.0,25.0,-100.00,NE,41,4.0,10.0,46,-99.99,,,-99.99,,2013-04-05 18:22:00,
2013-04-05 11:32:00,45.0,25.0,-100.00,NE,41,4.0,10.0,46,-99.99,,,-99.99,,2013-04-05 18:32:00,
2013-04-05 11:42:00,46.0,25.0,-100.00,NE,52,4.0,8.0,44,-99.99,,,-99.99,,2013-04-05 18:42:00,
2013-04-05 11:52:00,46.0,25.0,-100.00,NE,52,4.0,8.0,44,-99.99,,,-99.99,,2013-04-05 18:52:00,
2013-04-05 12:02:00,47.0,25.0,-100.00,NE,35,3.0,9.0,41,-99.99,,,-99.99,,2013-04-05 19:02:00,
2013-04-05 12:13:00,47.0,25.0,-100.00,NE,35,3.0,9.0,41,-99.99,,,-99.99,,2013-04-05 19:13:00,
2013-04-05 12:22:00,46.0,28.0,-100.00,NW,315,1.0,5.0,49,-99.99,,,-99.99,,2013-04-05 19:22:00,
2013-04-05 12:32:00,46.0,28.0,-100.00,NW,315,1.0,5.0,49,-99.99,,,-99.99,,2013-04-05 19:32:00,
2013-04-05 12:42:00,45.0,29.0,-100.00,West,263,2.0,6.0,53,-99.99,,,-99.99,,2013-04-05 19:42:00,
2013-04-05 12:52:00,45.0,29.0,-100.00,West,263,2.0,6.0,53,-99.99,,,-99.99,,2013-04-05 19:52:00,
2013-04-05 13:02:00,45.0,29.0,-100.00,West,263,2.0,6.0,53,-99.99,,,-99.99,,2013-04-05 20:02:00,
2013-04-05 13:11:00,45.0,29.0,-100.00,West,263,2.0,6.0,53,-99.99,,,-99.99,,2013-04-05 20:11:00,
2013-04-05 13:40:00,50.0,30.0,-100.00,North,4,2.0,6.0,46,-99.99,,,-99.99,,2013-04-05 20:40:00,
2013-04-05 14:12:00,50.0,30.0,-100.00,North,4,2.0,6.0,46,-99.99,,,-99.99,,2013-04-05 21:12:00,
2013-04-05 14:23:00,50.0,30.0,-100.00,North,4,2.0,6.0,46,-99.99,,,-99.99,,2013-04-05 21:23:00,
2013-04-05 14:33:00,50.0,30.0,-100.00,North,4,2.0,6.0,46,-99.99,,,-99.99,,2013-04-05 21:33:00,
2013-04-05 15:03:00,50.0,27.0,-100.00,North,6,3.0,9.0,41,-99.99,,,-99.99,,2013-04-05 22:03:00,
2013-04-05 15:13:00,50.0,27.0,-100.00,North,6,3.0,9.0,41,-99.99,,,-99.99,,2013-04-05 22:13:00,
2013-04-05 15:22:00,50.0,27.0,-100.00,North,6,3.0,9.0,41,-99.99,,,-99.99,,2013-04-05 22:22:00,
2013-04-05 16:42:00,49.0,31.0,-100.00,NE,54,4.0,8.0,49,-99.99,,,-99.99,,2013-04-05 23:42:00,
2013-04-05 16:53:00,49.0,31.0,-100.00,NE,54,4.0,8.0,49,-99.99,,,-99.99,,2013-04-05 23:53:00,
2013-04-05 17:02:00,48.0,30.0,-100.00,NE,48,5.0,9.0,49,-99.99,,,-99.99,,2013-04-06 00:02:00,
2013-04-05 17:12:00,48.0,30.0,-100.00,NE,48,5.0,9.0,49,-99.99,,,-99.99,,2013-04-06 00:12:00,
2013-04-05 17:22:00,48.0,30.0,-100.00,NE,48,5.0,9.0,49,-99.99,,,-99.99,,2013-04-06 00:22:00,
2013-04-05 18:02:00,50.0,28.0,-100.00,NE,38,5.0,10.0,42,-99.99,,,-99.99,,2013-04-06 01:02:00,
2013-04-05 18:12:00,50.0,28.0,-100.00,NE,38,5.0,10.0,42,-99.99,,,-99.99,,2013-04-06 01:12:00,
2013-04-05 18:22:00,50.0,28.0,-100.00,NE,38,5.0,10.0,42,-99.99,,,-99.99,,2013-04-06 01:22:00,
2013-04-05 18:32:00,50.0,28.0,-100.00,NE,38,5.0,10.0,42,-99.99,,,-99.99,,2013-04-06 01:32:00,